Temp_Advection
nan nan nan nan nan nan nan nan nan nan nan nan nan nan nan nan nan nan nan nan nan nan nan nan nan nan nan nan nan nan nan nan nan nan nan nan nan nan nan nan nan nan nan
nan -0 -0 0 -0 -1 -1 -1 -1 -1 -1 -0 -1 -1 -1 -1 -0 -1 -0 0 0 -0 -0 -0 -1 0 0 0 0 0 0 0 1 0 -0 -1 -2 -1 -0 0 0 0 nan
nan -0 -0 -0 0 -0 -1 -2 -2 -1 -1 -1 -1 -1 -1 -0 -0 -0 -1 -1 0 -0 -0 -0 0 1 -0 0 0 0 0 0 0 0 0 -0 -0 -1 -1 -0 -0 -0 nan
nan -0 -0 -0 1 1 0 0 -1 -1 -1 -1 -1 -1 -1 -1 -0 -0 -0 -1 -0 0 -0 -0 1 0 0 -0 -0 1 1 0 -0 0 1 0 0 -0 -1 -1 -0 -0 nan
nan 0 -0 -0 -0 0 0 1 1 0 -0 -0 -1 -1 -1 -0 -0 -0 -0 -0 -0 0 0 0 -0 0 -0 -1 0 0 1 1 0 -0 -0 -0 0 1 0 -0 -0 -1 nan
nan 0 0 0 0 1 0 0 1 1 1 -0 -0 -0 -1 -0 -0 -0 -0 -0 -0 -0 0 -0 0 0 -0 -0 0 1 0 0 0 -0 -0 0 0 0 -0 0 0 -1 nan
nan 0 0 1 0 0 1 0 0 0 1 0 -0 -0 -0 -0 -0 -0 -0 -0 -0 0 0 0 0 0 -0 0 1 0 -0 -0 0 -0 -0 -0 -0 -0 0 0 -0 -0 nan
nan 0 0 1 1 0 0 -0 0 -0 -0 0 0 0 -0 -0 -0 -0 -0 -0 -0 -0 0 0 0 -0 -1 0 0 -0 -0 -0 -0 -0 -0 0 -0 -0 -0 -0 -0 -0 nan
nan 0 0 1 1 1 0 0 -0 -0 -0 -0 -0 -0 -0 -0 -0 -0 -0 0 0 0 0 0 0 -0 -0 0 0 0 -0 -0 -0 -0 -0 -0 -0 -0 -0 -0 -0 -0 nan
nan 0 0 0 0 0 0 0 0 -0 -0 -0 -0 -0 -0 -0 0 0 0 0 0 0 0 0 0 0 -0 -0 -0 -0 -0 0 -0 -0 -0 -0 -0 -0 -0 -0 -0 -0 nan
nan 0 0 0 0 0 0 0 0 0 0 -0 -0 -0 -0 0 -0 -0 -0 -0 -0 -0 0 0 -0 0 0 -0 -0 0 -0 -0 -0 -1 -0 -0 -0 -0 -0 0 -0 -0 nan
nan 1 0 0 0 0 0 0 0 0 0 0 -0 -0 -0 -0 -0 -0 -0 0 -0 -0 0 0 0 -0 -0 -0 0 -0 -0 -0 0 -0 -1 -0 -0 -0 -0 -0 -0 -0 nan
nan 1 0 0 0 0 0 0 0 0 0 0 0 0 0 -0 -0 -0 -0 -0 0 0 -0 -0 -0 -0 0 0 -0 -0 -0 -0 -0 -0 -0 -0 -1 -1 -1 -1 -1 -0 nan
nan 1 0 0 0 0 0 0 0 0 0 0 0 0 0 -0 -0 -0 -0 -0 -0 0 0 0 -0 -0 -0 -0 -0 -0 -0 -0 -0 -0 -0 -0 -0 -0 -1 -1 -1 -1 nan
nan 1 0 0 0 0 0 0 0 0 0 0 0 0 0 0 -0 -0 -0 -0 -0 -0 -0 0 0 0 -0 -0 -0 -0 -0 -0 -0 -0 0 0 0 0 0 -1 -1 -1 nan
nan 1 1 0 0 0 0 0 0 0 0 0 0 0 0 0 0 0 0 -0 -0 -0 -0 -0 -0 0 -0 -0 -0 -0 -0 -0 -0 -0 -0 -0 -0 -0 0 0 0 0 nan
nan 0 0 1 1 1 0 0 0 0 0 0 0 0 0 0 0 0 0 0 0 0 -0 -0 -0 -0 -0 -0 -0 -0 -1 -0 -0 -0 -0 -0 0 0 -1 -0 -0 0 nan
nan 0 0 0 1 1 0 0 0 0 0 0 0 0 0 0 0 0 0 0 0 0 0 0 0 0 0 -0 -0 -0 -0 -1 -0 -0 -0 -1 -1 0 0 -0 -1 -1 nan
nan -0 0 0 0 1 1 1 0 0 0 0 0 0 0 0 0 0 0 0 0 0 0 0 0 -0 -0 -0 -0 -0 -1 -1 -1 -0 -0 -0 -2 -1 -0 -0 -0 -1 nan
nan -0 -0 0 0 1 1 0 0 0 0 1 0 0 0 0 0 0 0 0 0 0 0 0 0 -0 -0 -0 -0 -0 -1 -1 -2 -1 -1 1 0 -1 -0 -0 -0 -1 nan
nan -0 -0 0 0 1 1 1 0 0 1 1 0 0 0 0 0 0 0 0 0 0 0 0 0 0 0 0 0 1 0 -0 -1 -2 -2 -1 0 -0 -0 -0 -0 -0 nan
nan 0 0 0 0 1 1 0 0 1 1 0 0 0 0 0 0 0 0 0 0 0 0 0 0 0 -0 0 0 1 0 0 0 -0 -0 -1 -1 -0 0 -0 -0 0 nan
nan 0 0 0 1 0 0 -0 1 1 0 0 1 1 0 0 0 0 0 0 0 0 0 0 0 0 0 0 -0 0 0 -0 -0 -0 -0 0 -0 -1 -0 1 0 -0 nan
nan 1 0 0 0 1 0 1 1 1 0 1 1 1 0 0 0 0 0 0 0 0 0 0 0 0 0 0 -0 -1 -0 -0 -0 -0 0 -0 -0 -0 -1 -1 0 -0 nan
nan 1 1 0 0 0 0 1 1 1 1 1 1 0 0 0 0 0 0 0 0 -0 0 0 0 -0 0 0 0 0 -0 -0 0 -0 -0 0 -0 -1 -1 -1 -1 -0 nan
nan nan nan nan nan nan nan nan nan nan nan nan nan nan nan nan nan nan nan nan nan nan nan nan nan nan nan nan nan nan nan nan nan nan nan nan nan nan nan nan nan nan nan
Wind_Speed
21 23 22 19 21 21 24 26 28 29 28 26 29 28 29 28 30 28 33 30 28 28 22 23 27 28 29 23 19 19 19 20 19 21 24 25 26 28 31 32 33 34 34
17 16 18 20 26 28 30 30 29 31 31 28 26 26 26 27 26 28 28 35 29 28 26 26 26 27 26 22 21 20 20 21 20 20 22 20 26 28 28 29 31 32 33
14 17 22 24 29 33 36 34 30 28 28 25 24 23 24 24 24 25 25 28 30 27 33 30 28 28 25 20 19 20 21 21 22 22 20 11 10 20 22 20 22 25 28
13 19 21 25 28 31 34 34 29 22 19 19 19 21 21 21 23 23 23 21 21 25 28 28 30 20 21 22 21 22 22 23 27 28 29 30 32 30 29 27 24 25 27
12 17 21 23 26 30 31 28 25 19 15 12 16 20 20 20 21 20 21 18 17 20 26 28 30 25 23 20 23 21 23 25 27 29 29 30 32 34 36 36 30 31 33
13 16 19 22 24 24 24 24 20 19 18 17 12 10 18 21 21 20 14 14 15 14 24 25 23 20 21 26 21 19 18 18 21 23 25 27 30 31 32 37 37 38 42
14 17 18 20 19 23 24 21 18 18 16 17 8 6 9 12 16 17 14 15 16 20 10 15 10 13 20 14 14 15 15 17 19 20 21 27 30 34 40 41 43 34 34
13 15 16 18 16 19 22 20 18 17 16 15 10 8 7 7 11 11 12 13 15 17 21 13 16 20 14 14 13 15 16 17 20 21 22 24 28 21 17 18 20 27 29
13 14 15 16 15 16 16 19 17 15 13 11 9 8 7 6 5 6 8 7 9 8 10 14 14 16 14 13 16 20 21 20 20 19 20 19 16 16 20 14 17 15 12
13 13 14 14 12 13 13 13 16 16 14 10 7 5 3 2 2 3 4 5 7 8 12 11 13 13 15 17 15 17 19 19 18 17 18 18 19 18 16 18 15 12 14
14 13 13 12 12 12 12 12 12 14 11 8 4 3 2 1 1 2 3 2 2 4 9 12 14 15 18 18 17 17 16 16 15 17 21 21 23 23 22 21 20 20 20
17 15 13 12 10 11 10 10 11 11 11 9 5 4 2 1 1 3 6 8 7 9 11 12 13 14 13 12 13 12 13 15 20 19 20 20 20 21 22 22 22 21 22
20 18 16 14 11 9 10 8 7 7 7 7 7 6 4 3 4 4 5 4 6 8 8 7 7 7 9 10 10 11 12 13 14 17 18 18 20 21 22 22 23 23 23
22 22 18 16 13 10 9 9 7 5 5 5 4 4 3 3 3 5 6 6 5 6 7 8 7 9 9 9 11 11 11 12 14 15 16 17 18 19 20 21 21 22 22
17 24 22 17 14 12 10 9 8 7 5 5 5 5 5 6 6 6 6 7 7 7 8 9 9 10 10 10 11 11 12 13 13 14 16 18 19 20 21 22 22 23 24
20 22 23 20 18 14 12 10 10 8 8 7 7 7 8 8 7 7 6 7 8 9 9 9 10 10 11 13 14 13 13 14 15 17 17 18 19 20 21 22 21 22 21
26 23 23 23 18 16 13 13 11 10 9 8 7 7 8 8 9 9 9 9 9 9 9 9 9 9 9 11 13 14 15 17 17 18 18 19 19 21 23 23 20 21 21
21 20 21 22 19 17 16 15 15 13 12 11 10 9 8 8 8 9 9 9 9 9 10 10 11 11 11 13 14 16 18 20 19 18 19 21 22 22 22 23 25 27 27
25 21 18 18 20 19 17 17 17 16 15 13 11 9 8 8 9 9 10 10 10 10 10 11 11 11 11 13 15 18 20 23 23 24 24 23 24 23 21 24 27 30 31
22 19 17 18 20 22 20 20 19 18 16 13 11 10 9 9 10 10 10 10 10 10 10 10 11 12 14 15 17 19 21 22 23 25 25 25 20 21 23 26 31 34 33
21 19 17 17 17 20 21 20 19 20 14 15 13 11 10 10 11 11 10 10 10 10 10 10 11 12 14 16 18 18 18 19 21 24 27 26 25 25 27 26 27 27 26
21 19 19 17 15 20 22 21 22 16 17 16 15 13 12 11 11 11 10 10 10 10 10 11 11 13 15 16 16 17 14 12 18 21 23 24 26 27 27 25 24 25 24
22 20 19 16 17 21 23 24 21 20 20 19 17 16 15 13 12 11 11 10 11 11 11 12 13 14 13 13 13 15 13 15 18 20 20 23 24 27 26 25 24 23 23
22 22 21 21 20 23 25 25 22 22 22 21 19 17 16 14 12 11 11 11 11 11 12 12 13 15 16 15 15 16 18 20 21 22 24 24 25 23 23 23 23 23 21
26 25 24 25 25 23 25 25 25 26 24 21 20 19 16 15 13 12 12 12 12 13 13 14 15 17 15 14 13 15 17 18 20 21 24 24 24 25 24 24 24 24 24
30 27 28 29 28 26 26 24 25 27 25 23 23 20 17 16 15 14 12 13 13 14 14 14 15 14 13 13 13 13 15 16 18 20 21 22 23 24 25 26 27 27 26
Wind_Direction
318 317 315 329 333 324 312 296 291 279 282 277 273 269 260 257 255 253 241 243 246 244 248 238 246 238 238 238 244 253 257 262 267 273 276 276 270 265 263 263 267 265 257
320 329 334 332 334 330 321 311 305 298 282 272 272 272 269 261 257 256 251 240 248 241 234 236 240 242 238 229 240 248 256 263 265 269 281 287 287 278 272 270 270 270 267
319 334 339 341 339 335 331 330 318 302 291 279 263 265 268 261 257 261 262 249 244 251 241 236 228 231 234 240 243 253 258 265 268 268 264 278 267 290 290 280 270 270 269
323 334 334 339 327 328 332 333 330 325 313 291 271 265 266 259 255 267 262 258 246 249 250 247 237 233 240 245 250 250 252 257 265 271 270 269 272 276 287 282 277 271 269
322 329 334 329 332 332 335 345 345 348 334 316 301 267 262 261 263 262 260 269 260 245 243 238 242 251 241 247 243 250 255 259 264 267 272 275 279 277 270 279 278 273 274
317 326 331 336 343 342 347 356 352 352 345 331 318 272 273 273 264 256 271 262 247 235 232 226 229 228 241 253 256 257 262 270 276 279 276 277 271 272 267 269 269 272 276
313 324 332 337 349 3 359 360 353 344 344 342 342 273 270 270 264 265 274 250 241 234 210 197 205 235 241 248 265 269 267 267 273 275 276 277 279 287 273 272 263 264 268
311 317 327 333 336 349 5 356 354 355 351 352 356 346 310 288 273 272 274 257 256 246 260 272 250 248 261 276 276 277 275 278 277 276 274 272 273 280 284 280 280 278 264
303 308 319 328 336 336 354 2 356 350 353 354 353 341 346 327 290 263 251 236 233 237 257 268 273 267 273 267 276 281 282 282 276 275 276 274 273 274 274 279 284 286 294
296 296 307 322 331 339 341 343 353 357 351 352 347 360 356 359 121 140 171 207 209 214 226 245 267 274 276 286 276 278 280 275 273 277 283 284 285 287 286 294 286 283 287
292 290 296 311 325 330 340 348 350 359 357 1 18 22 12 21 308 332 318 296 239 249 255 263 264 268 274 275 273 270 271 276 293 301 299 300 296 293 293 285 286 284 281
289 277 282 294 308 320 332 341 348 355 2 11 1 1 357 25 298 265 267 267 273 273 268 269 273 277 278 278 283 288 294 300 297 303 297 296 293 293 291 288 287 285 281
273 265 270 279 290 302 314 323 334 345 354 10 16 12 342 298 280 288 281 291 271 267 270 274 275 274 270 276 287 298 299 297 298 295 298 298 298 297 295 293 292 290 287
268 258 262 271 277 284 295 302 309 320 329 339 351 349 343 326 297 289 297 297 292 288 290 296 300 301 303 299 300 304 304 304 306 303 303 303 303 303 302 300 298 297 295
275 251 255 261 265 267 273 278 286 290 293 299 312 322 324 320 315 312 311 312 312 309 306 310 309 307 308 306 309 313 315 316 311 306 305 306 306 306 303 300 300 299 299
289 261 253 254 257 260 260 259 262 269 279 292 307 320 327 326 320 312 305 304 306 307 305 302 302 304 306 307 305 303 309 317 317 318 318 318 316 312 308 305 301 304 305
292 278 265 260 262 256 254 253 254 255 258 265 277 291 304 311 314 313 312 310 308 307 307 303 298 297 300 305 315 323 320 321 318 318 315 315 317 314 310 308 307 302 303
321 295 272 263 260 254 251 247 245 246 248 251 257 266 278 288 296 299 299 298 300 299 302 306 309 310 310 311 314 315 315 316 316 315 314 316 315 314 316 318 312 309 305
313 307 279 270 261 253 251 247 244 242 243 244 249 256 269 288 300 303 301 297 297 298 299 297 298 300 304 307 312 314 317 319 322 324 323 324 321 322 319 313 310 306 304
310 304 293 275 260 247 247 246 245 243 244 246 252 259 273 287 294 297 294 293 296 298 300 300 306 309 311 312 312 312 314 315 317 318 319 320 318 317 316 313 310 308 307
307 304 291 277 274 251 247 249 249 250 249 243 248 255 265 276 286 293 292 291 295 296 297 296 297 301 305 308 308 307 311 316 317 315 318 320 321 320 316 312 306 304 306
300 296 292 281 265 246 248 253 252 252 243 244 246 249 257 266 274 280 283 288 291 293 294 297 300 303 307 308 306 308 317 319 310 315 315 319 322 315 316 314 311 308 302
298 294 289 284 261 253 253 253 253 241 241 240 243 246 249 254 265 274 279 281 287 290 296 301 303 309 311 309 308 318 327 324 323 320 313 314 316 322 323 323 318 313 313
287 293 282 277 270 260 256 258 250 242 241 241 241 242 248 255 262 270 277 281 284 289 297 299 306 313 320 323 332 331 330 332 329 329 322 323 322 321 325 328 329 331 324
285 287 277 277 278 271 264 259 249 241 242 241 240 243 246 251 257 263 269 275 281 286 292 297 303 307 312 319 323 325 328 327 323 322 325 326 328 331 332 333 334 334 332
285 281 279 277 276 268 261 258 249 242 240 240 239 241 244 249 254 259 268 277 283 288 293 291 291 295 298 308 312 323 326 323 326 327 331 335 338 338 336 335 335 336 333
Height
1504 1502 1499 1495 1492 1489 1485 1482 1478 1476 1474 1472 1471 1471 1470 1470 1472 1473 1476 1477 1478 1481 1484 1487 1489 1492 1493 1494 1497 1498 1499 1500 1501 1501 1500 1499 1498 1498 1497 1497 1497 1497 1497
1501 1499 1496 1493 1490 1486 1481 1477 1471 1467 1465 1465 1464 1464 1464 1464 1464 1467 1469 1471 1473 1476 1478 1482 1485 1486 1488 1489 1492 1493 1494 1496 1497 1497 1497 1493 1491 1490 1490 1490 1490 1489 1491
1498 1496 1493 1491 1486 1481 1475 1468 1464 1460 1457 1456 1456 1458 1458 1458 1459 1462 1463 1465 1469 1471 1474 1476 1478 1483 1486 1485 1487 1488 1489 1491 1492 1493 1494 1492 1487 1484 1483 1482 1482 1482 1482
1497 1494 1492 1488 1484 1479 1473 1466 1459 1454 1452 1451 1451 1452 1453 1453 1455 1458 1460 1461 1463 1465 1469 1471 1473 1476 1480 1482 1481 1483 1484 1486 1486 1487 1486 1486 1485 1483 1475 1475 1474 1474 1473
1495 1492 1489 1485 1481 1476 1469 1463 1457 1453 1451 1449 1448 1448 1449 1450 1452 1454 1455 1458 1458 1460 1465 1467 1468 1470 1474 1475 1478 1478 1479 1480 1480 1480 1480 1478 1477 1477 1474 1464 1465 1465 1465
1493 1490 1486 1482 1478 1473 1467 1461 1457 1453 1450 1448 1445 1445 1447 1448 1450 1451 1452 1456 1455 1455 1459 1462 1463 1466 1470 1473 1472 1473 1474 1474 1474 1474 1473 1472 1471 1468 1466 1462 1458 1456 1454
1488 1486 1483 1479 1476 1472 1466 1461 1457 1454 1451 1447 1444 1444 1446 1447 1448 1448 1450 1453 1453 1453 1449 1455 1460 1466 1469 1466 1466 1469 1469 1468 1468 1468 1466 1466 1463 1461 1455 1454 1448 1446 1446
1486 1484 1481 1478 1475 1471 1467 1462 1458 1454 1451 1448 1446 1445 1444 1444 1445 1446 1448 1450 1452 1452 1450 1449 1457 1464 1462 1459 1464 1464 1465 1462 1463 1461 1460 1459 1457 1455 1450 1446 1441 1439 1439
1483 1481 1479 1476 1473 1470 1467 1463 1459 1456 1452 1449 1448 1446 1446 1445 1445 1446 1448 1449 1451 1452 1453 1458 1460 1460 1458 1457 1457 1460 1459 1457 1457 1456 1454 1452 1449 1447 1445 1441 1440 1438 1436
1479 1478 1477 1474 1471 1468 1466 1463 1460 1457 1453 1451 1449 1447 1447 1447 1447 1447 1447 1448 1450 1451 1455 1456 1455 1454 1454 1452 1453 1455 1454 1453 1452 1449 1447 1445 1444 1442 1440 1438 1437 1433 1432
1475 1475 1474 1473 1470 1468 1466 1463 1461 1458 1455 1452 1450 1449 1448 1448 1449 1449 1448 1448 1449 1451 1453 1453 1452 1452 1451 1449 1450 1450 1449 1447 1445 1442 1442 1440 1438 1437 1435 1432 1432 1429 1428
1473 1472 1471 1469 1467 1465 1463 1462 1460 1457 1455 1453 1451 1449 1448 1448 1447 1446 1447 1448 1449 1449 1450 1450 1449 1448 1447 1446 1446 1446 1444 1440 1437 1438 1438 1436 1436 1434 1432 1431 1428 1425 1424
1467 1467 1466 1465 1464 1462 1461 1460 1458 1457 1455 1454 1452 1450 1449 1448 1447 1446 1446 1446 1446 1446 1446 1445 1444 1443 1443 1443 1442 1440 1437 1436 1434 1433 1433 1432 1430 1428 1427 1424 1422 1421 1419
1461 1461 1462 1461 1461 1460 1458 1458 1457 1456 1454 1453 1452 1450 1449 1449 1448 1447 1445 1445 1444 1444 1443 1442 1442 1440 1440 1439 1438 1436 1435 1433 1432 1431 1429 1427 1425 1423 1421 1418 1416 1414 1412
1454 1455 1456 1456 1457 1456 1455 1455 1454 1453 1452 1451 1451 1450 1449 1448 1446 1445 1444 1443 1443 1443 1442 1441 1440 1439 1438 1436 1434 1433 1432 1430 1429 1428 1426 1424 1422 1419 1416 1413 1410 1408 1405
1450 1449 1449 1449 1450 1451 1451 1451 1450 1450 1450 1450 1449 1448 1446 1445 1444 1443 1442 1442 1441 1440 1440 1439 1437 1436 1435 1433 1432 1431 1429 1427 1425 1423 1421 1419 1416 1414 1411 1408 1405 1404 1401
1446 1445 1445 1445 1446 1446 1447 1447 1448 1447 1447 1447 1446 1446 1445 1445 1444 1443 1442 1440 1439 1438 1437 1436 1435 1434 1432 1430 1429 1427 1425 1423 1422 1419 1416 1414 1411 1408 1405 1402 1400 1398 1397
1442 1440 1440 1441 1442 1443 1442 1443 1444 1444 1444 1444 1444 1444 1444 1443 1442 1441 1440 1439 1438 1436 1434 1433 1432 1431 1430 1428 1426 1424 1422 1421 1419 1416 1413 1410 1406 1404 1400 1398 1395 1393 1391
1440 1438 1436 1436 1437 1437 1438 1438 1439 1440 1440 1441 1441 1442 1441 1441 1439 1438 1437 1436 1435 1433 1432 1430 1429 1428 1427 1425 1423 1421 1418 1415 1413 1411 1408 1405 1402 1399 1398 1394 1390 1387 1383
1435 1433 1432 1431 1431 1432 1434 1434 1434 1434 1436 1437 1438 1439 1438 1437 1436 1435 1433 1432 1431 1430 1429 1427 1426 1425 1423 1422 1420 1418 1415 1412 1409 1407 1404 1402 1399 1396 1393 1390 1385 1379 1376
1431 1429 1426 1425 1427 1429 1429 1429 1431 1431 1433 1433 1434 1434 1433 1433 1433 1432 1431 1429 1428 1426 1425 1424 1423 1421 1419 1418 1416 1414 1411 1409 1406 1403 1400 1396 1393 1391 1388 1385 1380 1375 1371
1426 1424 1421 1420 1420 1422 1424 1425 1425 1427 1428 1428 1428 1427 1427 1428 1428 1427 1427 1426 1424 1423 1422 1421 1420 1418 1416 1415 1413 1410 1409 1407 1403 1400 1396 1393 1390 1386 1382 1377 1373 1369 1364
1421 1419 1417 1415 1415 1416 1416 1416 1417 1419 1419 1420 1421 1422 1422 1421 1422 1422 1422 1421 1420 1419 1418 1417 1416 1414 1413 1411 1408 1406 1404 1402 1400 1396 1393 1389 1385 1380 1375 1371 1367 1362 1358
1414 1414 1413 1411 1410 1409 1409 1409 1412 1413 1413 1414 1416 1416 1418 1418 1417 1417 1417 1416 1415 1414 1413 1412 1411 1410 1408 1406 1404 1402 1399 1397 1394 1391 1387 1383 1380 1376 1371 1366 1362 1358 1354
1407 1406 1404 1403 1404 1405 1404 1405 1406 1407 1408 1410 1411 1412 1412 1412 1412 1412 1411 1410 1410 1409 1408 1407 1406 1405 1404 1402 1401 1399 1396 1394 1391 1387 1383 1379 1374 1370 1366 1362 1358 1354 1349
1399 1397 1396 1394 1393 1395 1396 1397 1399 1401 1402 1404 1405 1406 1407 1409 1408 1407 1407 1406 1405 1404 1403 1402 1401 1400 1399 1398 1396 1394 1393 1390 1386 1383 1379 1375 1370 1366 1362 1358 1353 1349 1345